Location: Plainartige
(45.6866°N, 1.7993°E)
Time: 21:25:56
(UTC+00:00)

Vanguard 3 - All Passes

Search period start: 24 May 2022 00:00
Search period end: 03 June 2022 00:00
Orbit: 508 x 3258 km, 33.3° (Epoch: 24 May)

Date Brightness Start Highest point End Pass type
(mag) Time Alt. Az. Time Alt. Az. Time Alt. Az.
24 May - 01:35:29 10° SSW 01:38:25 18° SSE 01:42:09 10° ESE visible
24 May - 03:45:03 10° SW 03:49:17 23° S 03:55:23 10° SE daylight
24 May - 05:56:49 10° SW 06:01:03 15° SSW 06:06:32 10° SSE daylight
25 May - 00:23:09 10° S 00:24:34 12° SSE 00:26:05 10° SE visible
25 May - 02:31:37 10° SW 02:35:03 21° S 02:39:41 10° SE visible
25 May - 04:42:17 10° SW 04:46:19 18° SSW 04:51:46 10° SSE daylight
26 May - 01:18:26 10° SSW 01:21:03 17° S 01:24:11 10° SE visible
26 May - 03:28:23 10° SW 03:31:53 19° S 03:36:35 10° SE visible
26 May - 05:41:50 10° SSW 05:43:29 11° SSW 05:45:18 10° S daylight
27 May - 00:05:42 10° S 00:07:09 12° SSE 00:08:41 10° SE night (unlit)
27 May - 02:14:48 10° SW 02:17:42 18° S 02:21:22 10° SE visible
27 May - 04:26:11 10° SW 04:28:51 13° SSW 04:32:05 10° SSE daylight
28 May - 01:01:23 10° SSW 01:03:42 15° S 01:06:19 10° SE visible
28 May - 03:11:54 10° SW 03:14:30 14° S 03:17:40 10° SSE visible
28 May - 23:48:10 10° SSW 23:49:46 12° S 23:51:24 10° SE night (unlit)
29 May - 01:58:01 10° SW 02:00:21 15° S 02:03:03 10° SSE visible
30 May - 00:44:18 10° SSW 00:46:21 14° S 00:48:32 10° SE night (unlit)
30 May - 02:56:07 10° SSW 02:57:07 11° S 02:58:10 10° S visible
30 May - 23:30:31 10° SSW 23:32:23 13° S 23:34:13 10° SE night (unlit)
31 May - 01:41:27 10° SSW 01:42:59 12° S 01:44:40 10° SSE visible
31 May - 22:16:42 10° SSW 22:18:23 12° S 22:19:57 10° SSE visible
01 Jun - 00:27:10 10° SW 00:28:59 13° S 00:30:51 10° SSE night (unlit)
01 Jun - 21:03:09 10° S 21:04:15 11° S 21:05:17 10° SSE visible
01 Jun - 23:12:48 10° SW 23:15:01 14° S 23:17:05 10° SSE night (unlit)
02 Jun - 21:58:15 10° SSW 22:01:01 15° S 22:03:22 10° SE visible
